Regional Weather Roundup
Issued by NWS

Home | Current Version | Previous Version | Graphics & Text | Print | Product List | Glossary On
Versions: 1 2 3 4 5 6 7 8 9 10 11 12 13 14 15 16 17 18 19 20 21 22 23 24 25 26 27 28 29 30 31 32 33 34 35 36 37 38 39 40 41 42 43 44 45 46 47 48 49 50
000
ASUS45 KBOU 222307
RWRCO

WEATHER ROUNDUP FOR COLORADO
NATIONAL WEATHER SERVICE DENVER/BOULDER CO
500 PM MDT FRI AUG 22 2014

NOTE: "FAIR" INDICATES FEW OR NO CLOUDS BELOW 12000 FEET WITH NO
SIGNIFICANT WEATHER AND/OR OBSTRUCTIONS TO VISIBILITY.

COZ001>005-013-030-031-230000-
...NORTHWEST COLORADO...

CITY           SKY/WX    TMP DP  RH WIND       PRES   REMARKS
CRAIG          CLOUDY    64  54  69 NW3       30.09F
HAYDEN         CLOUDY    66  46  48 W5        30.11S
MEEKER         CLOUDY    72  46  39 S12       30.06F
MOUNT WERNER   NOT AVBL
STEAMBOAT SPGS CLOUDY    68  48  48 SW7       30.10S
WALDEN         CLOUDY    63  39  42 S13       30.18F
$$

COZ006>008-011-230000-
...WEST CENTRAL VALLEYS...

CITY           SKY/WX    TMP DP  RH WIND       PRES   REMARKS
GRAND JUNCTION PTSUNNY   74  52  46 E8        30.00F
MONTROSE       RAIN      64  57  78 SW5       30.13R
EAGLE          NOT AVBL
RIFLE          CLOUDY    75  48  38 W8        30.02F
DELTA          NOT AVBL
NUCLA          TSTM      57  52  82 S14G26    30.17R
$$

COZ017>023-064>068-230000-
...SOUTHWEST COLORADO...

CITY           SKY/WX    TMP DP  RH WIND       PRES   REMARKS
DURANGO        LGT RAIN  57  50  77 W20G29    30.24R
CORTEZ         RAIN      56  55  97 NE12      30.17F FOG
PAGOSA SPRINGS CLOUDY    61  47  61 S6        30.27S
TELLURIDE      RAIN      52  43  71 W17G35    30.32R
WOLF CREEK PAS NOT AVBL
$$

COZ009-010-012-014-032>034-037-058>063-230000-
...CENTRAL COLORADO...

CITY           SKY/WX    TMP DP  RH WIND       PRES   REMARKS
ASPEN          CLOUDY    66  43  43 S7        30.18F
BUENA VISTA    CLOUDY    58  46  65 SE12      30.26F
COPPER MTN     CLOUDY    52  41  66 S8        30.48S
BERTHOUD PASS  CLOUDY    41  39  93 SE7       30.52S
COTTONWOOD PAS CLOUDY    55  46  71 CALM      30.36F
GUNNISON       CLOUDY    64  45  48 E13       30.22S
KREMMLING      CLOUDY    66  46  48 CALM      30.17F
LEADVILLE      CLOUDY    50  44  80 S13       30.33F
MONARCH PASS   FOG       43  41  93 E5        30.58F VSB<1/4
SALIDA         CLOUDY    58  53  81 SE7       30.31F
SUNLIGHT       CLOUDY    55  46  71 CALM      30.39F
WILKERSON PASS NOT AVBL
$$

COZ069>075-230000-
...SAN LUIS VALLEY/SANGRE DE CRISTO MOUNTAINS...

CITY           SKY/WX    TMP DP  RH WIND       PRES   REMARKS
ALAMOSA        LGT RAIN  53  49  86 CALM      30.27F
LA VETA PASS   NOT AVBL
SAGUACHE       RAIN      52  50  93 SE6       30.31F
$$

COZ035-036-038>040-230000-
...NORTHERN COLORADO FRONT RANGE...

CITY           SKY/WX    TMP DP  RH WIND       PRES   REMARKS
DENVER INTL AP CLOUDY    65  60  84 SE14      30.08F
DMNS CITY PARK   N/A     71  55  56 NE2       30.07S
AURORA         PTSUNNY   65  59  79 SE12      30.11F
FRONT RANGE AP PTSUNNY   64  63  94 E12       30.11
ERIE MUNI ARPT LGT RAIN  71  57  61 S3        30.07S
BOULDER MUN AP CLOUDY    68  59  73 CALM      30.07S
CENTENNIAL     CLOUDY    66  55  67 S7        30.11F
BROOMFIELD     NOT AVBL
FORT COLLINS   CLOUDY    66  61  82 S7        30.06F
LONGMONT       CLOUDY    69  61  76 W6        30.09S
$$

COZ041-046-047-076>085-087-088-230000-
...PIKES PEAK/PALMER DIVIDE AND SOUTHERN FOOTHILLS...

CITY           SKY/WX    TMP DP  RH WIND       PRES   REMARKS
COLO. SPRINGS  CLOUDY    73  48  41 SW10      30.12F
A. F. ACADEMY  MOSUNNY   68  52  56 W2        30.14F
ELLICOTT       CLOUDY    72  51  47 W15       30.10F
FALCON         CLOUDY    69  50  50 SW10      30.17F
FORT CARSON    CLOUDY    72  50  46 SW12      30.10F
LIMON          CLOUDY    68  61  78 NE16      30.07F
MONUMENT HILL  PTSUNNY   61  55  82 W3        30.17F
TRINIDAD       PTSUNNY   68  58  70 NW15      30.10F
$$

COZ042>045-048>051-090-091-230000-
...NORTHEAST COLORADO...

CITY           SKY/WX    TMP DP  RH WIND       PRES   REMARKS
GREELEY ARPT   CLOUDY    68  57  68 SE15      30.08S
AKRON          LGT RAIN  69  59  70 NE8       30.07S
BURLINGTON     PTSUNNY   72  61  68 NE8       29.99F
WRAY           LGT RAIN  75  60  60 N14       29.99F
STERLING       CLOUDY    70  64  83 NE5       30.04S
HOLYOKE        NOT AVBL
FORT MORGAN    CLOUDY    64  61  90 CALM      30.11R
$$

COZ086-089-092>099-230000-
...SOUTHEAST COLORADO...

CITY           SKY/WX    TMP DP  RH WIND       PRES   REMARKS
PUEBLO         LGT RAIN  70  56  61 W20G28    30.07R
LA JUNTA       TSTM      65  62  90 W17G30    30.02R FOG
LAMAR          PTSUNNY   90  59  35 E14G20    29.87F
SPRINGFIELD      N/A     86  57  37 W3        29.92F
$$


USA.gov is the U.S. government's official web portal to all federal, state and local government web resources and services.